Find Starlink 31147

NORAD ID: 58681 Int'l Des: 2023-211 Owner: SPXS Country: US Constellation: starlink operational
LEOCIRCULAR

リアルタイム位置

3D地球を読み込み中...

Starlink 31147について

説明を読み込み中...

次回通過

Passes for default location (London). Set your location on the main map for personalized predictions.

高度履歴

Loading altitude history...

軌道要素

1 58681U 23211Q 26132.57641208 .00002722 00000-0 10839-3 0 9991
2 58681 43.0038 84.6226 0000874 263.3910 96.6842 15.27584919132236
Epoch: May 12, 2026 • Age: 13 hours

現在のステータス

高度 486.3 km
速度 7.63 km/s
衛星直下点 41.10°N, 121.48°W
打ち上げ日 Dec 29, 2023
運用期間 2.3 years
タイプ internet

技術仕様

分類 Payload
質量 730.00 kg
乾燥質量 700.00 kg
総質量 730.00 kg
長さ 0.30 m
直径 4.10 m
スパン 29.00 m
形状 Box + pan
製造者 SPXS
バスタイプ Starlink V2M
フェーズステータス In Orbit
所有者/国 SPXS/US

Most Searched